FW2350 Weather Reports


time (UTC)temp
C
wind
direction
speed
KPH
gust
KPH
rain 1hr
cm
rain 24hr
cm
rain mn
cm
humidity
%
barometer
mb
20260508063329 9 190 3.2 4.8 0.00 0.00 0.00 89 1015.3
20260508060323 8 216 0.0 0.0 0.00 0.00 0.00 90 1015.4
20260508053317 7 216 0.0 1.6 0.00 0.00 0.00 90 1015.2
20260508050332 7 176 0.0 0.0 0.00 0.00 0.00 88 1015.1
20260508043326 8 176 0.0 1.6 0.00 0.00 0.00 88 1015.2
20260508040316 8 176 1.6 3.2 0.00 0.00 0.00 88 1015.1
20260508033330 8 176 1.6 6.4 0.00 0.00 0.00 88 1015.0
20260508030323 8 177 0.0 1.6 0.00 0.00 0.00 86 1015.1
20260508023316 8 177 0.0 3.2 0.00 0.00 0.00 86 1015.2
20260508020331 8 177 0.0 0.0 0.00 0.00 0.00 85 1015.1
20260508013325 8 177 0.0 1.6 0.00 0.00 0.00 85 1015.2
20260508010318 9 177 0.0 0.0 0.00 0.00 0.00 83 1015.3
20260508003332 10 177 0.0 1.6 0.00 0.00 0.00 81 1015.2
20260508000327 10 177 3.2 6.4 0.00 0.00 0.00 80 1015.3
20260507233337 10 178 6.4 9.7 0.00 0.00 0.00 82 1015.4
20260507230351 10 185 3.2 8.0 0.00 0.00 0.00 86 1015.5
20260507223324 10 240 0.0 3.2 0.00 0.00 0.00 87 1015.4
20260507220319 10 240 0.0 0.0 0.00 0.00 0.00 87 1015.4
20260507213313 11 240 1.6 3.2 0.00 0.00 0.00 85 1015.3
20260507210328 11 240 1.6 3.2 0.00 0.00 0.00 83 1015.1
20260507203343 11 241 1.6 3.2 0.00 0.00 0.00 82 1015.0
20260507200317 11 240 0.0 0.0 0.00 0.00 0.00 80 1014.6
20260507193313 12 240 1.6 3.2 0.00 0.00 0.00 76 1014.3
20260507190323 12 240 1.6 4.8 0.00 0.00 0.00 73 1014.3
20260507183316 13 248 1.6 8.0 0.00 0.00 0.00 68 1014.2
20260507180330 13 279 1.6 8.0 0.00 0.00 0.00 65 1014.0
20260507173346 14 223 6.4 11.3 0.00 0.00 0.00 60 1013.9
20260507170340 14 230 3.2 12.9 0.00 0.00 0.00 58 1014.0
20260507163313 14 182 4.8 11.3 0.00 0.00 0.00 55 1014.1
20260507160328 15 185 8.0 11.3 0.00 0.00 0.00 54 1014.1
20260507153322 15 174 1.6 11.3 0.00 0.00 0.00 54 1014.0
20260507150353 16 190 4.8 14.5 0.00 0.00 0.00 54 1014.2
20260507143327 15 158 3.2 11.3 0.00 0.00 0.00 53 1014.3
20260507140322 15 167 4.8 9.7 0.00 0.00 0.00 51 1014.6
20260507133316 15 128 4.8 8.0 0.00 0.00 0.00 52 1014.7
20260507130330 15 138 6.4 11.3 0.00 0.00 0.00 53 1014.8
20260507123325 16 249 6.4 12.9 0.00 0.00 0.00 57 1014.9
20260507120319 14 236 6.4 12.9 0.00 0.00 0.00 60 1015.1
20260507113334 13 169 6.4 9.7 0.00 0.00 0.00 60 1015.1
20260507110327 13 182 4.8 8.0 0.00 0.00 0.00 64 1015.4
20260507103337 11 173 8.0 12.9 0.00 0.00 0.00 72 1015.7
20260507100330 11 126 6.4 11.3 0.00 0.00 0.00 76 1015.8
20260507093325 10 130 4.8 9.7 0.00 0.00 0.00 80 1015.7
20260507090318 10 148 4.8 9.7 0.00 0.00 0.00 87 1015.7
20260507083313 8 140 4.8 9.7 0.00 0.00 0.00 91 1015.8
20260507080328 7 107 1.6 6.4 0.00 0.00 0.00 93 1015.7
20260507073322 7 32 0.0 3.2 0.00 0.00 0.00 94 1015.6
20260507070317 6 32 0.0 1.6 0.00 0.00 0.00 94 1015.4